User: anonymous   Login
Location: �perlecques
(50.8057°N, 2.1521°E)
Time: 11:57:10
(UTC+00:00)
Language:

STARLINK-1269 - Orbit

View from above orbital plane
View from above orbital plane
View from above satellite
View from above satellite

Ground track
Ground track

The orbit data is extracted from the following two-line orbital elements,

1 45197U 20012V   20190.91667824  .00025669  00000-0  17748-2 0  9993
2 45197  52.9992 338.1895 0001207 107.3598  68.0863 15.05573698 21973
Epoch (UTC): 08 July 2020 22:00:01
Eccentricity: 0.0001207
inclination: 52.9992°
perigee height: 549 km
apogee height: 550 km
right ascension of ascending node: 338.1895°
argument of perigee: 107.3598°
revolutions per day: 15.05573698
mean anomaly at epoch: 68.0863°
orbit number at epoch: 2197

The dashed part of the orbit path shows where the satellite is in the earth's shadow,  

DLR